Year,Month,Day,Hour,Minute,Value (Times are PST for windspeed in km/hr)
2009,11,05,00,00,0.00
2009,11,05,00,01,1.80
2009,11,05,00,02,3.40
2009,11,05,00,03,7.30
2009,11,05,00,04,9.10
2009,11,05,00,05,2.90
2009,11,05,00,06,3.50
2009,11,05,00,07,2.30
2009,11,05,00,08,2.80
2009,11,05,00,09,1.50
2009,11,05,00,10,3.10
2009,11,05,00,11,0.40
2009,11,05,00,12,0.00
2009,11,05,00,13,0.00
2009,11,05,00,14,0.00
2009,11,05,00,15,0.00
2009,11,05,00,16,0.40
2009,11,05,00,17,2.00
2009,11,05,00,18,1.10
2009,11,05,00,19,0.00
2009,11,05,00,20,0.10
2009,11,05,00,21,2.80
2009,11,05,00,22,6.30
2009,11,05,00,23,5.20
2009,11,05,00,24,1.50
2009,11,05,00,25,0.00
2009,11,05,00,26,4.00
2009,11,05,00,27,7.00
2009,11,05,00,28,4.60
2009,11,05,00,29,0.30
2009,11,05,00,30,3.90
2009,11,05,00,31,3.80
2009,11,05,00,32,0.10
2009,11,05,00,33,0.00
2009,11,05,00,34,0.00
2009,11,05,00,35,2.50
2009,11,05,00,36,3.60
2009,11,05,00,37,2.90
2009,11,05,00,38,0.00
2009,11,05,00,39,0.00
2009,11,05,00,40,2.60
2009,11,05,00,41,5.60
2009,11,05,00,42,6.90
2009,11,05,00,43,5.60
2009,11,05,00,44,2.10
2009,11,05,00,45,3.10
2009,11,05,00,46,6.40
2009,11,05,00,47,2.70
2009,11,05,00,48,3.40
2009,11,05,00,49,0.20
2009,11,05,00,50,1.20
2009,11,05,00,51,3.90
2009,11,05,00,52,1.60
2009,11,05,00,53,3.00
2009,11,05,00,54,1.20
2009,11,05,00,55,1.10
2009,11,05,00,56,0.00
2009,11,05,00,57,2.30
2009,11,05,00,58,3.20
2009,11,05,00,59,1.90
2009,11,05,01,00,1.20
2009,11,05,01,01,4.50
2009,11,05,01,02,5.10
2009,11,05,01,03,5.00
2009,11,05,01,04,0.70
2009,11,05,01,05,2.40
2009,11,05,01,06,0.70
2009,11,05,01,07,0.80
2009,11,05,01,08,4.70
2009,11,05,01,09,2.60
2009,11,05,01,10,0.50
2009,11,05,01,11,0.00
2009,11,05,01,12,0.00
2009,11,05,01,13,0.00
2009,11,05,01,14,0.10
2009,11,05,01,15,0.90
2009,11,05,01,16,2.90
2009,11,05,01,17,3.50
2009,11,05,01,18,2.80
2009,11,05,01,19,5.50
2009,11,05,01,20,3.80
2009,11,05,01,21,3.70
2009,11,05,01,22,2.40
2009,11,05,01,23,0.00
2009,11,05,01,24,1.70
2009,11,05,01,25,5.10
2009,11,05,01,26,5.70
2009,11,05,01,27,6.50
2009,11,05,01,28,8.80
2009,11,05,01,29,3.30
2009,11,05,01,30,7.60
2009,11,05,01,31,8.90
2009,11,05,01,32,9.80
2009,11,05,01,33,7.50
2009,11,05,01,34,17.50
2009,11,05,01,35,4.40
2009,11,05,01,36,7.20
2009,11,05,01,37,15.60
2009,11,05,01,38,4.60
2009,11,05,01,39,0.50
2009,11,05,01,40,3.90
2009,11,05,01,41,15.30
2009,11,05,01,42,6.50
2009,11,05,01,43,6.40
2009,11,05,01,44,6.20
2009,11,05,01,45,3.10
2009,11,05,01,46,2.40
2009,11,05,01,47,3.80
2009,11,05,01,48,2.10
2009,11,05,01,49,4.30
2009,11,05,01,50,5.60
2009,11,05,01,51,0.90
2009,11,05,01,52,5.80
2009,11,05,01,53,8.80
2009,11,05,01,54,6.40
2009,11,05,01,55,5.00
2009,11,05,01,56,0.70
2009,11,05,01,57,0.70
2009,11,05,01,58,0.80
2009,11,05,01,59,3.10
2009,11,05,02,00,12.30
2009,11,05,02,01,6.70
2009,11,05,02,02,10.50
2009,11,05,02,03,17.70
2009,11,05,02,04,6.10
2009,11,05,02,05,2.70
2009,11,05,02,06,7.10
2009,11,05,02,07,16.60
2009,11,05,02,08,8.10
2009,11,05,02,09,8.10
2009,11,05,02,10,8.90
2009,11,05,02,11,11.40
2009,11,05,02,12,6.80
2009,11,05,02,13,11.30
2009,11,05,02,14,18.10
2009,11,05,02,15,6.10
2009,11,05,02,16,16.50
2009,11,05,02,17,19.80
2009,11,05,02,18,16.80
2009,11,05,02,19,38.20
2009,11,05,02,20,17.30
2009,11,05,02,21,20.70
2009,11,05,02,22,10.90
2009,11,05,02,23,17.10
2009,11,05,02,24,8.20
2009,11,05,02,25,2.30
2009,11,05,02,26,5.90
2009,11,05,02,27,4.90
2009,11,05,02,28,5.00
2009,11,05,02,29,6.40
2009,11,05,02,30,1.30
2009,11,05,02,31,5.30
2009,11,05,02,32,1.40
2009,11,05,02,33,5.30
2009,11,05,02,34,5.80
2009,11,05,02,35,1.60
2009,11,05,02,36,6.40
2009,11,05,02,37,9.50
2009,11,05,02,38,15.50
2009,11,05,02,39,7.60
2009,11,05,02,40,5.50
2009,11,05,02,41,2.60
2009,11,05,02,42,0.60
2009,11,05,02,43,15.10
2009,11,05,02,44,18.20
2009,11,05,02,45,16.40
2009,11,05,02,46,13.20
2009,11,05,02,47,3.70
2009,11,05,02,48,5.60
2009,11,05,02,49,8.00
2009,11,05,02,50,4.50
2009,11,05,02,51,5.00
2009,11,05,02,52,13.70
2009,11,05,02,53,16.90
2009,11,05,02,54,8.80
2009,11,05,02,55,11.10
2009,11,05,02,56,6.70
2009,11,05,02,57,9.90
2009,11,05,02,58,6.90
2009,11,05,02,59,10.30
2009,11,05,03,00,8.90
2009,11,05,03,01,9.90
2009,11,05,03,02,26.80
2009,11,05,03,03,10.90
2009,11,05,03,04,6.50
2009,11,05,03,05,13.30
2009,11,05,03,06,17.10
2009,11,05,03,07,14.10
2009,11,05,03,08,12.90
2009,11,05,03,09,12.30
2009,11,05,03,10,6.00
2009,11,05,03,11,6.10
2009,11,05,03,12,23.00
2009,11,05,03,13,26.30
2009,11,05,03,14,7.20
2009,11,05,03,15,3.30
2009,11,05,03,16,8.00
2009,11,05,03,17,10.10
2009,11,05,03,18,11.50
2009,11,05,03,19,10.40
2009,11,05,03,20,6.30
2009,11,05,03,21,15.80
2009,11,05,03,22,11.10
2009,11,05,03,23,18.60
2009,11,05,03,24,20.70
2009,11,05,03,25,19.00
2009,11,05,03,26,27.90
2009,11,05,03,27,29.90
2009,11,05,03,28,18.80
2009,11,05,03,29,15.40
2009,11,05,03,30,13.50
2009,11,05,03,31,8.60
2009,11,05,03,32,12.40
2009,11,05,03,33,13.20
2009,11,05,03,34,13.10
2009,11,05,03,35,10.50
2009,11,05,03,36,7.70
2009,11,05,03,37,14.30
2009,11,05,03,38,8.20
2009,11,05,03,39,4.90
2009,11,05,03,40,13.30
2009,11,05,03,41,18.50
2009,11,05,03,42,12.20
2009,11,05,03,43,13.10
2009,11,05,03,44,13.00
2009,11,05,03,45,13.80
2009,11,05,03,46,10.60
2009,11,05,03,47,11.80
2009,11,05,03,48,5.00
2009,11,05,03,49,0.70
2009,11,05,03,50,1.40
2009,11,05,03,51,3.10
2009,11,05,03,52,1.30
2009,11,05,03,53,1.50
2009,11,05,03,54,3.50
2009,11,05,03,55,2.80
2009,11,05,03,56,3.20
2009,11,05,03,57,4.80
2009,11,05,03,58,8.60
2009,11,05,03,59,2.70
2009,11,05,04,00,1.60
2009,11,05,04,01,1.80
2009,11,05,04,02,3.70
2009,11,05,04,03,4.60
2009,11,05,04,04,0.00
2009,11,05,04,05,3.20
2009,11,05,04,06,3.40
2009,11,05,04,07,4.00
2009,11,05,04,08,0.50
2009,11,05,04,09,0.30
2009,11,05,04,10,0.00
2009,11,05,04,11,1.80
2009,11,05,04,12,0.40
2009,11,05,04,13,2.00
2009,11,05,04,14,5.20
2009,11,05,04,15,7.40
2009,11,05,04,16,1.50
2009,11,05,04,17,2.50
2009,11,05,04,18,3.00
2009,11,05,04,19,0.00
2009,11,05,04,20,2.50
2009,11,05,04,21,5.10
2009,11,05,04,22,6.10
2009,11,05,04,23,6.60
2009,11,05,04,24,4.60
2009,11,05,04,25,2.40
2009,11,05,04,26,3.80
2009,11,05,04,27,7.40
2009,11,05,04,28,6.20
2009,11,05,04,29,8.40
2009,11,05,04,30,2.90
2009,11,05,04,31,0.00
2009,11,05,04,32,5.50
2009,11,05,04,33,5.00
2009,11,05,04,34,1.30
2009,11,05,04,35,4.90
2009,11,05,04,36,12.80
2009,11,05,04,37,12.50
2009,11,05,04,38,16.90
2009,11,05,04,39,10.30
2009,11,05,04,40,8.00
2009,11,05,04,41,7.40
2009,11,05,04,42,4.40
2009,11,05,04,43,9.00
2009,11,05,04,44,8.30
2009,11,05,04,45,11.50
2009,11,05,04,46,5.50
2009,11,05,04,47,7.60
2009,11,05,04,48,6.90
2009,11,05,04,49,5.60
2009,11,05,04,50,1.80
2009,11,05,04,51,1.90
2009,11,05,04,52,4.60
2009,11,05,04,53,2.60
2009,11,05,04,54,1.60
2009,11,05,04,55,0.20
2009,11,05,04,56,3.80
2009,11,05,04,57,5.90
2009,11,05,04,58,4.70
2009,11,05,04,59,0.10
2009,11,05,05,00,0.00
2009,11,05,05,01,0.90
2009,11,05,05,02,0.00
2009,11,05,05,03,0.00
2009,11,05,05,04,0.40
2009,11,05,05,05,0.00
2009,11,05,05,06,0.20
2009,11,05,05,07,7.20
2009,11,05,05,08,4.20
2009,11,05,05,09,2.40
2009,11,05,05,10,7.60
2009,11,05,05,11,2.20
2009,11,05,05,12,0.40
2009,11,05,05,13,0.00
2009,11,05,05,14,0.10
2009,11,05,05,15,3.40
2009,11,05,05,16,3.90
2009,11,05,05,17,0.90
2009,11,05,05,18,5.30
2009,11,05,05,19,0.40
2009,11,05,05,20,3.70
2009,11,05,05,21,1.50
2009,11,05,05,22,1.60
2009,11,05,05,23,2.50
2009,11,05,05,24,0.20
2009,11,05,05,25,0.30
2009,11,05,05,26,1.30
2009,11,05,05,27,2.30
2009,11,05,05,28,1.90
2009,11,05,05,29,0.30
2009,11,05,05,30,2.30
2009,11,05,05,31,0.10
2009,11,05,05,32,0.00
2009,11,05,05,33,0.10
2009,11,05,05,34,0.00
2009,11,05,05,35,0.00
2009,11,05,05,36,0.00
2009,11,05,05,37,1.10
2009,11,05,05,38,0.30
2009,11,05,05,39,0.10
2009,11,05,05,40,0.00
2009,11,05,05,41,2.70
2009,11,05,05,42,1.10
2009,11,05,05,43,0.00
2009,11,05,05,44,0.00
2009,11,05,05,45,0.20
2009,11,05,05,46,0.00
2009,11,05,05,47,0.00
2009,11,05,05,48,0.00
2009,11,05,05,49,0.00
2009,11,05,05,50,0.10
2009,11,05,05,51,0.40
2009,11,05,05,52,2.20
2009,11,05,05,53,0.20
2009,11,05,05,54,0.00
2009,11,05,05,55,4.00
2009,11,05,05,56,3.20
2009,11,05,05,57,0.80
2009,11,05,05,58,0.20
2009,11,05,05,59,2.00
2009,11,05,06,00,2.70
2009,11,05,06,01,1.90
2009,11,05,06,02,0.10
2009,11,05,06,03,0.20
2009,11,05,06,04,0.90
2009,11,05,06,05,1.10
2009,11,05,06,06,1.10
2009,11,05,06,07,0.20
2009,11,05,06,08,0.90
2009,11,05,06,09,3.80
2009,11,05,06,10,0.80
2009,11,05,06,11,0.90
2009,11,05,06,12,0.30
2009,11,05,06,13,1.10
2009,11,05,06,14,2.40
2009,11,05,06,15,1.20
2009,11,05,06,16,3.00
2009,11,05,06,17,0.80
2009,11,05,06,18,0.20
2009,11,05,06,19,0.00
2009,11,05,06,20,0.10
2009,11,05,06,21,0.20
2009,11,05,06,22,5.90
2009,11,05,06,23,0.30
2009,11,05,06,24,0.00
2009,11,05,06,25,0.00
2009,11,05,06,26,0.00
2009,11,05,06,27,1.40
2009,11,05,06,28,2.70
2009,11,05,06,29,0.00
2009,11,05,06,30,0.10
2009,11,05,06,31,0.00
2009,11,05,06,32,1.30
2009,11,05,06,33,0.10
2009,11,05,06,34,0.00
2009,11,05,06,35,0.20
2009,11,05,06,36,0.20
2009,11,05,06,37,0.00
2009,11,05,06,38,0.40
2009,11,05,06,39,0.30
2009,11,05,06,40,1.10
2009,11,05,06,41,1.30
2009,11,05,06,42,0.00
2009,11,05,06,43,0.00
2009,11,05,06,44,0.10
2009,11,05,06,45,0.10
2009,11,05,06,46,3.90
2009,11,05,06,47,0.00
2009,11,05,06,48,1.60
2009,11,05,06,49,1.00
2009,11,05,06,50,0.20
2009,11,05,06,51,1.00
2009,11,05,06,52,2.80
2009,11,05,06,53,1.60
2009,11,05,06,54,1.70
2009,11,05,06,55,0.60
2009,11,05,06,56,3.70
2009,11,05,06,57,3.70
2009,11,05,06,58,0.80
2009,11,05,06,59,1.50
2009,11,05,07,00,0.40
2009,11,05,07,01,0.00
2009,11,05,07,02,0.00
2009,11,05,07,03,0.00
2009,11,05,07,04,1.90
2009,11,05,07,05,0.40
2009,11,05,07,06,0.00
2009,11,05,07,07,0.20
2009,11,05,07,08,0.30
2009,11,05,07,09,0.40
2009,11,05,07,10,0.00
2009,11,05,07,11,3.20
2009,11,05,07,12,2.80
2009,11,05,07,13,0.60
2009,11,05,07,14,2.10
2009,11,05,07,15,4.40
2009,11,05,07,16,2.10
2009,11,05,07,17,3.00
2009,11,05,07,18,4.10
2009,11,05,07,19,3.70
2009,11,05,07,20,2.80
2009,11,05,07,21,0.40
2009,11,05,07,22,0.00
2009,11,05,07,23,0.10
2009,11,05,07,24,0.00
2009,11,05,07,25,0.00
2009,11,05,07,26,0.00
2009,11,05,07,27,0.00
2009,11,05,07,28,0.00
2009,11,05,07,29,0.00
2009,11,05,07,30,0.00
2009,11,05,07,31,0.00
2009,11,05,07,32,0.00
2009,11,05,07,33,0.10
2009,11,05,07,34,0.70
2009,11,05,07,35,0.00
2009,11,05,07,36,0.00
2009,11,05,07,37,0.00
2009,11,05,07,38,0.40
2009,11,05,07,39,0.50
2009,11,05,07,40,0.00
2009,11,05,07,41,0.00
2009,11,05,07,42,0.40
2009,11,05,07,43,0.00
2009,11,05,07,44,2.40
2009,11,05,07,45,7.30
2009,11,05,07,46,4.20
2009,11,05,07,47,2.80
2009,11,05,07,48,1.90
2009,11,05,07,49,1.70
2009,11,05,07,50,0.80
2009,11,05,07,51,2.60
2009,11,05,07,52,0.70
2009,11,05,07,53,1.30
2009,11,05,07,54,0.20
2009,11,05,07,55,2.70
2009,11,05,07,56,3.20
2009,11,05,07,57,0.00
2009,11,05,07,58,0.10
2009,11,05,07,59,0.10
2009,11,05,08,00,0.00
2009,11,05,08,01,1.30
2009,11,05,08,02,0.10
2009,11,05,08,03,0.00
2009,11,05,08,04,0.00
2009,11,05,08,05,2.80
2009,11,05,08,06,5.20
2009,11,05,08,07,0.30
2009,11,05,08,08,0.00
2009,11,05,08,09,0.10
2009,11,05,08,10,0.00
2009,11,05,08,11,0.00
2009,11,05,08,12,0.00
2009,11,05,08,13,0.00
2009,11,05,08,14,0.00
2009,11,05,08,15,0.00
2009,11,05,08,16,0.00
2009,11,05,08,17,0.00
2009,11,05,08,18,0.10
2009,11,05,08,19,0.00
2009,11,05,08,20,0.20
2009,11,05,08,21,1.90
2009,11,05,08,22,0.00
2009,11,05,08,23,0.40
2009,11,05,08,24,0.00
2009,11,05,08,25,0.50
2009,11,05,08,26,0.00
2009,11,05,08,27,2.70
2009,11,05,08,28,0.00
2009,11,05,08,29,0.30
2009,11,05,08,30,0.20
2009,11,05,08,31,0.80
2009,11,05,08,32,1.00
2009,11,05,08,33,3.20
2009,11,05,08,34,2.50
2009,11,05,08,35,1.50
2009,11,05,08,36,1.20
2009,11,05,08,37,0.00
2009,11,05,08,38,0.00
2009,11,05,08,39,3.40
2009,11,05,08,40,3.90
2009,11,05,08,41,1.20
2009,11,05,08,42,3.10
2009,11,05,08,43,6.80
2009,11,05,08,44,2.40
2009,11,05,08,45,2.60
2009,11,05,08,46,4.20
2009,11,05,08,47,3.80
2009,11,05,08,48,0.60
2009,11,05,08,49,1.10
2009,11,05,08,50,0.90
2009,11,05,08,51,4.50
2009,11,05,08,52,2.00
2009,11,05,08,53,4.10
2009,11,05,08,54,1.70
2009,11,05,08,55,0.00
2009,11,05,08,56,0.00
2009,11,05,08,57,3.90
2009,11,05,08,58,4.60
2009,11,05,08,59,0.70
2009,11,05,09,00,0.00
2009,11,05,09,01,0.00
2009,11,05,09,02,0.90
2009,11,05,09,03,1.80
2009,11,05,09,04,0.20
2009,11,05,09,05,1.00
2009,11,05,09,06,0.50
2009,11,05,09,07,0.70
2009,11,05,09,08,0.00
2009,11,05,09,09,0.50
2009,11,05,09,10,0.30
2009,11,05,09,11,2.00
2009,11,05,09,12,2.10
2009,11,05,09,13,0.00
2009,11,05,09,14,0.00
2009,11,05,09,15,4.60
2009,11,05,09,16,1.50
2009,11,05,09,17,5.30
2009,11,05,09,18,3.00
2009,11,05,09,19,0.10
2009,11,05,09,20,2.20
2009,11,05,09,21,7.20
2009,11,05,09,22,6.90
2009,11,05,09,23,4.10
2009,11,05,09,24,1.80
2009,11,05,09,25,3.10
2009,11,05,09,26,4.30
2009,11,05,09,27,4.30
2009,11,05,09,28,4.70
2009,11,05,09,29,4.00
2009,11,05,09,30,1.30
2009,11,05,09,31,8.70
2009,11,05,09,32,4.00
2009,11,05,09,33,4.20
2009,11,05,09,34,3.40
2009,11,05,09,35,0.70
2009,11,05,09,36,1.70
2009,11,05,09,37,2.70
2009,11,05,09,38,1.60
2009,11,05,09,39,2.60
2009,11,05,09,40,2.10
2009,11,05,09,41,2.60
2009,11,05,09,42,0.00
2009,11,05,09,43,2.90
2009,11,05,09,44,3.60
2009,11,05,09,45,3.00
2009,11,05,09,46,0.00
2009,11,05,09,47,0.00
2009,11,05,09,48,0.00
2009,11,05,09,49,1.40
2009,11,05,09,50,1.00
2009,11,05,09,51,6.10
2009,11,05,09,52,5.70
2009,11,05,09,53,0.90
2009,11,05,09,54,0.70
2009,11,05,09,55,1.10
2009,11,05,09,56,2.30
2009,11,05,09,57,5.20
2009,11,05,09,58,1.60
2009,11,05,09,59,3.00
2009,11,05,10,00,5.50
2009,11,05,10,01,10.60
2009,11,05,10,02,5.40
2009,11,05,10,03,3.10
2009,11,05,10,04,2.30
2009,11,05,10,05,4.30
2009,11,05,10,06,7.30
2009,11,05,10,07,7.80
2009,11,05,10,08,9.70
2009,11,05,10,09,3.60
2009,11,05,10,10,4.00
2009,11,05,10,11,2.10
2009,11,05,10,12,4.90
2009,11,05,10,13,2.60
2009,11,05,10,14,3.80
2009,11,05,10,15,0.00
2009,11,05,10,16,0.00
2009,11,05,10,17,1.40
2009,11,05,10,18,5.90
2009,11,05,10,19,4.60
2009,11,05,10,20,21.70
2009,11,05,10,21,6.30
2009,11,05,10,22,4.50
2009,11,05,10,23,8.00
2009,11,05,10,24,5.80
2009,11,05,10,25,5.30
2009,11,05,10,26,4.00
2009,11,05,10,27,3.00
2009,11,05,10,28,13.00
2009,11,05,10,29,18.50
2009,11,05,10,30,4.90
2009,11,05,10,31,2.80
2009,11,05,10,32,3.80
2009,11,05,10,33,2.10
2009,11,05,10,34,4.60
2009,11,05,10,35,6.30
2009,11,05,10,36,9.40
2009,11,05,10,37,17.00
2009,11,05,10,38,3.30
2009,11,05,10,39,5.30
2009,11,05,10,40,6.80
2009,11,05,10,41,4.80
2009,11,05,10,42,10.10
2009,11,05,10,43,3.40
2009,11,05,10,44,1.80
2009,11,05,10,45,4.70
2009,11,05,10,46,5.10
2009,11,05,10,47,0.10
2009,11,05,10,48,4.80
2009,11,05,10,49,8.00
2009,11,05,10,50,4.00
2009,11,05,10,51,3.80
2009,11,05,10,52,1.80
2009,11,05,10,53,2.10
2009,11,05,10,54,1.80
2009,11,05,10,55,13.00
2009,11,05,10,56,13.90
2009,11,05,10,57,11.70
2009,11,05,10,58,5.70
2009,11,05,10,59,4.40
2009,11,05,11,00,5.00
2009,11,05,11,01,3.10
2009,11,05,11,02,4.40
2009,11,05,11,03,2.20
2009,11,05,11,04,3.60
2009,11,05,11,05,17.70
2009,11,05,11,06,4.30
2009,11,05,11,07,5.70
2009,11,05,11,08,2.40
2009,11,05,11,09,6.00
2009,11,05,11,10,6.70
2009,11,05,11,11,1.80
2009,11,05,11,12,6.00
2009,11,05,11,13,5.30
2009,11,05,11,14,2.30
2009,11,05,11,15,1.60
2009,11,05,11,16,0.00
2009,11,05,11,17,0.00
2009,11,05,11,18,0.00
2009,11,05,11,19,0.70
2009,11,05,11,20,3.00
2009,11,05,11,21,5.00
2009,11,05,11,22,2.20
2009,11,05,11,23,3.60
2009,11,05,11,24,2.80
2009,11,05,11,25,0.40
2009,11,05,11,26,2.90
2009,11,05,11,27,3.90
2009,11,05,11,28,5.30
2009,11,05,11,29,2.10
2009,11,05,11,30,0.40
2009,11,05,11,31,0.40
2009,11,05,11,32,0.60
2009,11,05,11,33,0.00
2009,11,05,11,34,1.90
2009,11,05,11,35,0.60
2009,11,05,11,36,3.60
2009,11,05,11,37,6.20
2009,11,05,11,38,5.30
2009,11,05,11,39,0.90
2009,11,05,11,40,3.20
2009,11,05,11,41,0.60
2009,11,05,11,42,3.80
2009,11,05,11,43,1.00
2009,11,05,11,44,5.00
2009,11,05,11,45,3.00
2009,11,05,11,46,4.20
2009,11,05,11,47,3.80
2009,11,05,11,48,5.50
2009,11,05,11,49,2.20
2009,11,05,11,50,4.70
2009,11,05,11,51,4.30
2009,11,05,11,52,7.50
2009,11,05,11,53,9.10
2009,11,05,11,54,3.50
2009,11,05,11,55,0.40
2009,11,05,11,56,0.10
2009,11,05,11,57,4.40
2009,11,05,11,58,1.80
2009,11,05,11,59,6.10
2009,11,05,12,00,2.00
2009,11,05,12,01,7.30
2009,11,05,12,02,4.30
2009,11,05,12,03,1.90
2009,11,05,12,04,3.80
2009,11,05,12,05,8.40
2009,11,05,12,06,2.50
2009,11,05,12,07,0.00
2009,11,05,12,08,2.90
2009,11,05,12,09,7.00
2009,11,05,12,10,2.60
2009,11,05,12,11,7.10
2009,11,05,12,12,13.40
2009,11,05,12,13,6.20
2009,11,05,12,14,7.00
2009,11,05,12,15,3.80
2009,11,05,12,16,4.80
2009,11,05,12,17,11.50
2009,11,05,12,18,7.90
2009,11,05,12,19,7.10
2009,11,05,12,20,3.50
2009,11,05,12,21,5.00
2009,11,05,12,22,4.40
2009,11,05,12,23,0.90
2009,11,05,12,24,0.00
2009,11,05,12,25,0.00
2009,11,05,12,26,3.30
2009,11,05,12,27,6.00
2009,11,05,12,28,4.10
2009,11,05,12,29,2.70
2009,11,05,12,30,7.80
2009,11,05,12,31,4.50
2009,11,05,12,32,4.00
2009,11,05,12,33,13.40
2009,11,05,12,34,16.80
2009,11,05,12,35,7.30
2009,11,05,12,36,5.80
2009,11,05,12,37,1.70
2009,11,05,12,38,4.70
2009,11,05,12,39,3.50
2009,11,05,12,40,8.60
2009,11,05,12,41,2.60
2009,11,05,12,42,6.50
2009,11,05,12,43,8.70
2009,11,05,12,44,5.90
2009,11,05,12,45,2.50
2009,11,05,12,46,0.70
2009,11,05,12,47,0.30
2009,11,05,12,48,0.70
2009,11,05,12,49,2.80
2009,11,05,12,50,1.40
2009,11,05,12,51,7.90
2009,11,05,12,52,4.40
2009,11,05,12,53,8.60
2009,11,05,12,54,3.80
2009,11,05,12,55,9.10
2009,11,05,12,56,10.70
2009,11,05,12,57,18.10
2009,11,05,12,58,11.40
2009,11,05,12,59,8.80
2009,11,05,13,00,9.20
2009,11,05,13,01,18.70
2009,11,05,13,02,21.80
2009,11,05,13,03,14.20
2009,11,05,13,04,9.70
2009,11,05,13,05,16.30
2009,11,05,13,06,11.00
2009,11,05,13,07,9.70
2009,11,05,13,08,26.10
2009,11,05,13,09,12.70
2009,11,05,13,10,2.20
2009,11,05,13,11,1.80
2009,11,05,13,12,1.80
2009,11,05,13,13,5.90
2009,11,05,13,14,8.40
2009,11,05,13,15,6.80
2009,11,05,13,16,4.30
2009,11,05,13,17,15.60
2009,11,05,13,18,18.10
2009,11,05,13,19,8.40
2009,11,05,13,20,1.10
2009,11,05,13,21,10.90
2009,11,05,13,22,9.80
2009,11,05,13,23,11.50
2009,11,05,13,24,10.20
2009,11,05,13,25,9.80
2009,11,05,13,26,8.20
2009,11,05,13,27,5.20
2009,11,05,13,28,5.70
2009,11,05,13,29,5.80
2009,11,05,13,30,1.30
2009,11,05,13,31,12.70
2009,11,05,13,32,11.10
2009,11,05,13,33,11.50
2009,11,05,13,34,12.70
2009,11,05,13,35,4.40
2009,11,05,13,36,5.50
2009,11,05,13,37,4.60
2009,11,05,13,38,2.30
2009,11,05,13,39,1.70
2009,11,05,13,40,3.50
2009,11,05,13,41,3.20
2009,11,05,13,42,3.90
2009,11,05,13,43,4.90
2009,11,05,13,44,3.80
2009,11,05,13,45,7.50
2009,11,05,13,46,3.10
2009,11,05,13,47,0.50
2009,11,05,13,48,3.00
2009,11,05,13,49,4.80
2009,11,05,13,50,5.80
2009,11,05,13,51,10.30
2009,11,05,13,52,5.10
2009,11,05,13,53,7.50
2009,11,05,13,54,3.80
2009,11,05,13,55,3.00
2009,11,05,13,56,2.70
2009,11,05,13,57,4.40
2009,11,05,13,58,9.20
2009,11,05,13,59,13.80
2009,11,05,14,00,9.70
2009,11,05,14,01,11.70
2009,11,05,14,02,7.70
2009,11,05,14,03,5.00
2009,11,05,14,04,7.10
2009,11,05,14,05,8.20
2009,11,05,14,06,4.50
2009,11,05,14,07,3.10
2009,11,05,14,08,1.30
2009,11,05,14,09,4.30
2009,11,05,14,10,4.80
2009,11,05,14,11,4.00
2009,11,05,14,12,3.30
2009,11,05,14,13,1.70
2009,11,05,14,14,4.70
2009,11,05,14,15,8.30
2009,11,05,14,16,12.10
2009,11,05,14,17,4.30
2009,11,05,14,18,8.40
2009,11,05,14,19,8.90
2009,11,05,14,20,4.50
2009,11,05,14,21,6.20
2009,11,05,14,22,10.40
2009,11,05,14,23,10.70
2009,11,05,14,24,5.20
2009,11,05,14,25,4.50
2009,11,05,14,26,5.20
2009,11,05,14,27,12.40
2009,11,05,14,28,14.10
2009,11,05,14,29,5.70
2009,11,05,14,30,1.30
2009,11,05,14,31,4.50
2009,11,05,14,32,0.50
2009,11,05,14,33,7.10
2009,11,05,14,34,6.30
2009,11,05,14,35,0.90
2009,11,05,14,36,3.10
2009,11,05,14,37,17.80
2009,11,05,14,38,10.30
2009,11,05,14,39,6.90
2009,11,05,14,40,5.10
2009,11,05,14,41,3.00
2009,11,05,14,42,5.70
2009,11,05,14,43,2.90
2009,11,05,14,44,2.90
2009,11,05,14,45,0.20
2009,11,05,14,46,0.00
2009,11,05,14,47,3.70
2009,11,05,14,48,7.70
2009,11,05,14,49,7.40
2009,11,05,14,50,3.50
2009,11,05,14,51,6.40
2009,11,05,14,52,0.40
2009,11,05,14,53,3.30
2009,11,05,14,54,6.70
2009,11,05,14,55,1.50
2009,11,05,14,56,6.50
2009,11,05,14,57,2.50
2009,11,05,14,58,0.00
2009,11,05,14,59,0.40
2009,11,05,15,00,3.30
2009,11,05,15,01,12.70
2009,11,05,15,02,9.20
2009,11,05,15,03,5.60
2009,11,05,15,04,2.20
2009,11,05,15,05,3.00
2009,11,05,15,06,6.50
2009,11,05,15,07,17.70
2009,11,05,15,08,5.30
2009,11,05,15,09,20.80
2009,11,05,15,10,16.60
2009,11,05,15,11,11.50
2009,11,05,15,12,12.30
2009,11,05,15,13,7.50
2009,11,05,15,14,1.80
2009,11,05,15,15,5.00
2009,11,05,15,16,4.00
2009,11,05,15,17,1.80
2009,11,05,15,18,2.80
2009,11,05,15,19,2.00
2009,11,05,15,20,1.10
2009,11,05,15,21,5.30
2009,11,05,15,22,4.70
2009,11,05,15,23,9.80
2009,11,05,15,24,8.50
2009,11,05,15,25,3.80
2009,11,05,15,26,4.70
2009,11,05,15,27,5.80
2009,11,05,15,28,4.70
2009,11,05,15,29,6.40
2009,11,05,15,30,1.50
2009,11,05,15,31,4.80
2009,11,05,15,32,8.80
2009,11,05,15,33,8.00
2009,11,05,15,34,19.00
2009,11,05,15,35,10.60
2009,11,05,15,36,6.90
2009,11,05,15,37,0.60
2009,11,05,15,38,2.40
2009,11,05,15,39,4.00
2009,11,05,15,40,4.80
2009,11,05,15,41,0.20
2009,11,05,15,42,0.40
2009,11,05,15,43,1.30
2009,11,05,15,44,0.00
2009,11,05,15,45,0.00
2009,11,05,15,46,1.40
2009,11,05,15,47,1.90
2009,11,05,15,48,3.10
2009,11,05,15,49,3.20
2009,11,05,15,50,2.20
2009,11,05,15,51,7.80
2009,11,05,15,52,15.60
2009,11,05,15,53,8.70
2009,11,05,15,54,19.60
2009,11,05,15,55,13.60
2009,11,05,15,56,7.60
2009,11,05,15,57,4.90
2009,11,05,15,58,6.10
2009,11,05,15,59,1.40
2009,11,05,16,00,11.70
2009,11,05,16,01,2.10
2009,11,05,16,02,1.00
2009,11,05,16,03,5.10
2009,11,05,16,04,0.00
2009,11,05,16,05,2.10
2009,11,05,16,06,2.40
2009,11,05,16,07,5.50
2009,11,05,16,08,10.90
2009,11,05,16,09,6.20
2009,11,05,16,10,2.10
2009,11,05,16,11,0.40
2009,11,05,16,12,3.70
2009,11,05,16,13,1.50
2009,11,05,16,14,0.70
2009,11,05,16,15,7.30
2009,11,05,16,16,6.20
2009,11,05,16,17,6.50
2009,11,05,16,18,7.70
2009,11,05,16,19,10.10
2009,11,05,16,20,12.20
2009,11,05,16,21,23.00
2009,11,05,16,22,12.80
2009,11,05,16,23,8.90
2009,11,05,16,24,17.90
2009,11,05,16,25,6.20
2009,11,05,16,26,5.00
2009,11,05,16,27,3.10
2009,11,05,16,28,2.90
2009,11,05,16,29,7.90
2009,11,05,16,30,4.60
2009,11,05,16,31,5.20
2009,11,05,16,32,6.10
2009,11,05,16,33,2.60
2009,11,05,16,34,0.00
2009,11,05,16,35,0.10
2009,11,05,16,36,0.40
2009,11,05,16,37,1.00
2009,11,05,16,38,0.30
2009,11,05,16,39,2.10
2009,11,05,16,40,0.00
2009,11,05,16,41,3.20
2009,11,05,16,42,0.70
2009,11,05,16,43,0.10
2009,11,05,16,44,1.00
2009,11,05,16,45,21.50
2009,11,05,16,46,21.90
2009,11,05,16,47,9.30
2009,11,05,16,48,2.80
2009,11,05,16,49,5.60
2009,11,05,16,50,6.00
2009,11,05,16,51,3.80
2009,11,05,16,52,7.10
2009,11,05,16,53,4.80
2009,11,05,16,54,5.00
2009,11,05,16,55,6.10
2009,11,05,16,56,1.40
2009,11,05,16,57,5.20
2009,11,05,16,58,12.20
2009,11,05,16,59,7.50
2009,11,05,17,00,4.20
2009,11,05,17,01,3.40
2009,11,05,17,02,4.50
2009,11,05,17,03,1.90
2009,11,05,17,04,0.90
2009,11,05,17,05,6.50
2009,11,05,17,06,2.10
2009,11,05,17,07,5.50
2009,11,05,17,08,3.80
2009,11,05,17,09,5.50
2009,11,05,17,10,1.00
2009,11,05,17,11,8.00
2009,11,05,17,12,13.00
2009,11,05,17,13,5.60
2009,11,05,17,14,4.10
2009,11,05,17,15,1.60
2009,11,05,17,16,2.80
2009,11,05,17,17,0.40
2009,11,05,17,18,1.20
2009,11,05,17,19,0.10
2009,11,05,17,20,2.10
2009,11,05,17,21,2.40
2009,11,05,17,22,7.80
2009,11,05,17,23,3.20
2009,11,05,17,24,2.30
2009,11,05,17,25,3.90
2009,11,05,17,26,2.10
2009,11,05,17,27,1.40
2009,11,05,17,28,3.50
2009,11,05,17,29,1.60
2009,11,05,17,30,5.30
2009,11,05,17,31,7.60
2009,11,05,17,32,3.90
2009,11,05,17,33,1.40
2009,11,05,17,34,3.00
2009,11,05,17,35,3.60
2009,11,05,17,36,0.70
2009,11,05,17,37,0.20
2009,11,05,17,38,0.80
2009,11,05,17,39,0.00
2009,11,05,17,40,0.00
2009,11,05,17,41,0.00
2009,11,05,17,42,0.00
2009,11,05,17,43,0.00
2009,11,05,17,44,0.00
2009,11,05,17,45,0.20
2009,11,05,17,46,3.60
2009,11,05,17,47,1.10
2009,11,05,17,48,2.30
2009,11,05,17,49,4.70
2009,11,05,17,50,2.30
2009,11,05,17,51,0.80
2009,11,05,17,52,1.20
2009,11,05,17,53,1.50
2009,11,05,17,54,0.00
2009,11,05,17,55,4.80
2009,11,05,17,56,7.80
2009,11,05,17,57,6.50
2009,11,05,17,58,1.60
2009,11,05,17,59,0.30
2009,11,05,18,00,0.00